Location: Augirein
(42.9320°N, 0.9181°E)
Time: 02:40:59
(UTC+00:00)

CZ-4 R/B - Pass Details

Date: 20 June 2021
Orbit: 681 x 752 km, 98.5° (Epoch: 25 July)

Event Time Altitude Azimuth Distance (km) Brightness Sun altitude
Rises 00:45:50 0° 16° (NNE) 3,056 8.6 -22.7°
Reaches altitude 10° 00:48:05 10° 19° (NNE) 2,139 7.4 -22.6°
Maximum altitude 00:52:44 67° 102° (ESE) 748 3.9 -22.4°
Enters shadow 00:53:33 55° 155° (SSE) 827 3.8 -22.4°
